Weather History for KSYR - November, 2013

Change the Weather History Date:

Sunday, November 24, 2013

  Actual Average Record
Temperature  
Mean Temperature 21 °F 38 °F  
Max Temperature 25 °F 45 °F 72 °F (2014)
Min Temperature 17 °F 30 °F 5 °F (1956)
Degree Days  
Heating Degree Days 44 27  
Month to date heating degree days 576 559  
Since 1 July heating degree days 1098 1176  
Cooling Degree Days 0 0  
Month to date cooling degree days 0 0  
Year to date cooling degree days 712 569  
Moisture  
Dew Point 13 °F    
Average Humidity 73    
Maximum Humidity 91    
Minimum Humidity 54    
Precipitation  
Precipitation 0.07 in 0.12 in 1.14 in (1912)
Month to date precipitation 2.21 2.83  
Year to date precipitation 35.90 34.55  
Snow  
Snow 2.20 in 0.50 in 5.10 in (1970)
Month to date snowfall 7.2 6.1  
Since 1 July snowfall 7.2 6.5  
Since 1 September snowfall 7.2 6.5  
Snow Depth 6.00 in    
Sea Level Pressure  
Sea Level Pressure 30.25 in    
Wind  
Wind Speed 14 mph (WNW)    
Max Wind Speed 23 mph    
Max Gust Speed 29 mph    
Visibility 4 miles    
Events Snow    
T = Trace of Precipitation, MM = Missing Value Source: NWS Daily Summary

Daily Weather History Graph

Daily Weather History Graph

Search for Another Location

Airport or City:

Trip Planner

Search our weather history database for the weather conditions in past years. The results will help you decide how hot, cold, wet, or windy it might be!

Date:

Astronomy

Nov. 24, 2013 Rise Set
Actual Time 7:08 AM EST 4:33 PM EST
Civil Twilight 6:37 AM EST 5:04 PM EST
Nautical Twilight 6:02 AM EST 5:39 PM EST
Astronomical Twilight 5:28 AM EST 6:13 PM EST
Moon 11:02 PM EST (11/24) 11:50 AM EST (11/24)
Length of Visible Light 10h 27m
Length of Day
9h 25m
Waning Gibbous, 61% of the Moon is Illuminated
Nov 24
Waning Gibbous
Nov 25
Last Quarter
Dec 2
New
Dec 9
First Quarter
Dec 17
Full

Hourly Weather History & Observations

Time (EST) Temp. Windchill Dew Point Humidity Pressure Visibility Wind Dir Wind Speed Gust Speed Precip Events Conditions
12:03 AM 19.4 °F 4.5 °F 17.6 °F 93% 30.06 in 0.8 mi West 17.3 mph - 0.01 in Snow Light Snow
12:21 AM 19.4 °F 6.6 °F 17.6 °F 93% 30.06 in 1.0 mi WNW 12.7 mph - 0.02 in Snow Light Snow
12:28 AM 19.4 °F 6.6 °F 17.6 °F 93% 30.06 in 0.8 mi WNW 12.7 mph - 0.02 in Snow Light Snow
12:37 AM 19.4 °F 4.5 °F 17.6 °F 93% 30.06 in 1.0 mi WNW 17.3 mph 23.0 mph 0.02 in Snow Light Snow
12:54 AM 19.0 °F 4.0 °F 16.0 °F 88% 30.07 in 1.2 mi WNW 17.3 mph 24.2 mph 0.03 in Snow Light Snow
1:43 AM 19.4 °F 6.6 °F 15.8 °F 86% 30.09 in 1.8 mi WNW 12.7 mph 21.9 mph 0.00 in Snow Light Snow
1:54 AM 19.0 °F 6.1 °F 15.1 °F 85% 30.10 in 2.0 mi WNW 12.7 mph 18.4 mph 0.00 in Snow Light Snow
1:59 AM 19.4 °F 5.5 °F 14.0 °F 80% 30.10 in 3.0 mi WNW 15.0 mph 19.6 mph 0.00 in Snow Light Snow
2:20 AM 19.4 °F 6.0 °F 12.2 °F 74% 30.11 in 1.8 mi WNW 13.8 mph - 0.00 in Snow Light Snow
2:54 AM 18.0 °F 2.6 °F 14.0 °F 84% 30.13 in 1.0 mi WNW 17.3 mph 24.2 mph 0.00 in Snow Light Snow
3:54 AM 18.0 °F 3.1 °F 12.9 °F 81% 30.14 in 1.5 mi NW 16.1 mph 21.9 mph 0.00 in Snow Light Snow
4:54 AM 17.1 °F 4.3 °F 14.0 °F 88% 30.16 in 1.0 mi WNW 11.5 mph - 0.01 in Snow Light Snow
5:36 AM 17.6 °F 5.0 °F 12.2 °F 79% 30.16 in 2.5 mi WNW 11.5 mph - 0.00 in Snow Light Snow
5:40 AM 17.6 °F 4.3 °F 12.2 °F 79% 30.16 in 4.0 mi WNW 12.7 mph - 0.00 in Snow Light Snow
5:54 AM 17.1 °F 5.0 °F 12.9 °F 84% 30.18 in 2.5 mi WNW 10.4 mph 20.7 mph 0.00 in Snow Light Snow
5:59 AM 17.6 °F 5.0 °F 12.2 °F 79% 30.17 in 3.0 mi WNW 11.5 mph - 0.00 in Snow Light Snow
6:54 AM 18.0 °F 5.4 °F 10.9 °F 74% 30.19 in 9.0 mi WNW 11.5 mph - 0.00 in Snow Light Snow
7:22 AM 19.4 °F 3.2 °F 10.4 °F 68% 30.20 in 4.0 mi NW 20.7 mph 28.8 mph 0.00 in Snow Light Snow
7:33 AM 17.6 °F 5.0 °F 12.2 °F 79% 30.21 in 1.5 mi NNW 11.5 mph 24.2 mph 0.00 in Snow Light Snow
7:54 AM 18.0 °F 3.1 °F 12.0 °F 78% 30.24 in 3.0 mi NW 16.1 mph - 0.00 in Snow Light Snow
8:54 AM 19.0 °F 5.6 °F 10.0 °F 68% 30.27 in 10.0 mi NW 13.8 mph - 0.00 in   Mostly Cloudy
9:54 AM 21.0 °F 8.6 °F 10.9 °F 65% 30.30 in 9.0 mi WNW 12.7 mph - 0.00 in Snow Light Snow
10:54 AM 21.9 °F 8.7 °F 10.9 °F 63% 30.31 in 8.0 mi WNW 15.0 mph 26.5 mph 0.00 in Snow Light Snow
11:54 AM 21.9 °F 7.8 °F 12.9 °F 68% 30.30 in 4.0 mi WNW 17.3 mph 23.0 mph 0.00 in Snow Light Snow
12:02 PM 23.0 °F 10.6 °F 12.2 °F 63% 30.29 in 5.0 mi WNW 13.8 mph 23.0 mph 0.00 in Snow Light Snow
12:54 PM 24.1 °F 12.0 °F 10.9 °F 57% 30.29 in 9.0 mi WNW 13.8 mph 20.7 mph 0.00 in Snow Light Snow
1:54 PM 24.1 °F 10.6 °F 12.0 °F 60% 30.29 in 4.0 mi WNW 17.3 mph 26.5 mph 0.01 in Snow Light Snow
2:35 PM 23.0 °F 10.1 °F 14.0 °F 68% 30.29 in 0.8 mi WNW 15.0 mph 24.2 mph 0.00 in Snow Light Snow
2:37 PM 21.2 °F 7.8 °F 14.0 °F 74% 30.29 in 0.8 mi NW 15.0 mph 24.2 mph 0.00 in Snow Small Hail
2:44 PM 21.2 °F 7.3 °F 15.8 °F 80% 30.29 in 3.0 mi NW 16.1 mph - 0.00 in Snow Light Snow
2:54 PM 21.9 °F 5.8 °F 12.9 °F 68% 30.30 in 3.0 mi West 23.0 mph 28.8 mph 0.00 in Snow Light Snow
3:10 PM 23.0 °F 11.1 °F 14.0 °F 68% 30.29 in 1.5 mi West 12.7 mph - 0.00 in Snow Light Snow
3:44 PM 23.0 °F 10.6 °F 12.2 °F 63% 30.30 in 8.0 mi West 13.8 mph - 0.01 in Snow Light Snow
3:54 PM 23.0 °F 9.6 °F 12.9 °F 65% 30.31 in 9.0 mi West 16.1 mph 23.0 mph 0.01 in Snow Light Snow
4:21 PM 23.0 °F 9.6 °F 12.2 °F 63% 30.30 in 1.8 mi West 16.1 mph 23.0 mph 0.00 in Snow Light Snow
4:35 PM 23.0 °F 10.6 °F 12.2 °F 63% 30.30 in 8.0 mi WNW 13.8 mph - 0.00 in Snow Light Snow
4:54 PM 23.0 °F 9.2 °F 9.0 °F 55% 30.32 in 9.0 mi West 17.3 mph - 0.00 in Snow Light Snow
5:54 PM 21.0 °F 7.6 °F 16.0 °F 81% 30.34 in 6.0 mi West 15.0 mph - 0.00 in Snow Light Snow
6:54 PM 21.9 °F 9.2 °F 10.0 °F 60% 30.36 in 7.0 mi WNW 13.8 mph 27.6 mph 0.00 in Snow Light Snow
7:54 PM 21.9 °F 9.2 °F 12.0 °F 66% 30.37 in 8.0 mi West 13.8 mph 23.0 mph 0.00 in Snow Light Snow
8:05 PM 21.2 °F 7.8 °F 14.0 °F 74% 30.36 in 1.5 mi NW 15.0 mph 27.6 mph 0.00 in Snow Light Snow
8:16 PM 19.4 °F 5.0 °F 15.8 °F 86% 30.36 in 2.0 mi NW 16.1 mph 26.5 mph 0.00 in Snow Light Snow
8:26 PM 19.4 °F 5.5 °F 15.8 °F 86% 30.36 in 6.0 mi NW 15.0 mph 23.0 mph 0.00 in Snow Light Snow
8:52 PM 21.2 °F 10.1 °F 12.2 °F 68% 30.35 in 9.0 mi NW 10.4 mph - 0.00 in Snow Light Snow
8:54 PM 21.0 °F 9.9 °F 12.9 °F 71% 30.37 in 9.0 mi NW 10.4 mph - 0.00 in Snow Light Snow
9:54 PM 21.0 °F 10.6 °F 10.9 °F 65% 30.37 in 9.0 mi WNW 9.2 mph - 0.00 in Snow Light Snow
10:50 PM 21.2 °F 8.3 °F 14.0 °F 74% 30.37 in 2.5 mi WNW 13.8 mph 20.7 mph 0.00 in Snow Light Snow
10:54 PM 21.0 °F 8.1 °F 14.0 °F 74% 30.38 in 2.5 mi NW 13.8 mph 20.7 mph 0.00 in Snow Light Snow
11:01 PM 21.2 °F 10.1 °F 15.8 °F 80% 30.37 in 4.0 mi NW 10.4 mph - 0.00 in Snow Light Snow
11:34 PM 19.4 °F 8.6 °F 15.8 °F 86% 30.37 in 1.8 mi NNW 9.2 mph - 0.00 in Snow Light Snow
11:52 PM 19.4 °F 7.9 °F 15.8 °F 86% 30.36 in 2.0 mi NW 10.4 mph - 0.01 in Snow Light Snow
11:53 PM 19.0 °F 6.8 °F 16.0 °F 88% 30.38 in 2.0 mi NW 11.5 mph - 0.01 in Snow Light Snow